Year,Month,Day,Hour,Minute,Value (Times are PST for windspeed in km/hr)
2022,04,05,00,00,30.40
2022,04,05,00,01,34.50
2022,04,05,00,02,38.30
2022,04,05,00,03,33.70
2022,04,05,00,04,33.60
2022,04,05,00,05,35.30
2022,04,05,00,06,35.70
2022,04,05,00,07,33.90
2022,04,05,00,08,30.50
2022,04,05,00,09,32.30
2022,04,05,00,10,35.80
2022,04,05,00,11,36.70
2022,04,05,00,12,33.30
2022,04,05,00,13,35.90
2022,04,05,00,14,39.20
2022,04,05,00,15,37.10
2022,04,05,00,16,37.60
2022,04,05,00,17,31.70
2022,04,05,00,18,37.90
2022,04,05,00,19,39.00
2022,04,05,00,20,37.60
2022,04,05,00,21,35.80
2022,04,05,00,22,35.90
2022,04,05,00,23,31.50
2022,04,05,00,24,39.00
2022,04,05,00,25,31.20
2022,04,05,00,26,37.60
2022,04,05,00,27,34.40
2022,04,05,00,28,38.70
2022,04,05,00,29,38.20
2022,04,05,00,30,39.50
2022,04,05,00,31,43.10
2022,04,05,00,32,36.70
2022,04,05,00,33,41.00
2022,04,05,00,34,34.30
2022,04,05,00,35,45.80
2022,04,05,00,36,39.40
2022,04,05,00,37,36.60
2022,04,05,00,38,44.40
2022,04,05,00,39,37.80
2022,04,05,00,40,40.00
2022,04,05,00,41,45.40
2022,04,05,00,42,44.70
2022,04,05,00,43,39.00
2022,04,05,00,44,41.20
2022,04,05,00,45,38.30
2022,04,05,00,46,37.90
2022,04,05,00,47,35.00
2022,04,05,00,48,36.60
2022,04,05,00,49,41.40
2022,04,05,00,50,44.80
2022,04,05,00,51,40.70
2022,04,05,00,52,39.80
2022,04,05,00,53,38.30
2022,04,05,00,54,40.00
2022,04,05,00,55,35.90
2022,04,05,00,56,33.30
2022,04,05,00,57,41.80
2022,04,05,00,58,39.40
2022,04,05,00,59,37.50
2022,04,05,01,00,42.50
2022,04,05,01,01,42.90
2022,04,05,01,02,43.10
2022,04,05,01,03,43.30
2022,04,05,01,04,38.60
2022,04,05,01,05,48.50
2022,04,05,01,06,44.10
2022,04,05,01,07,47.00
2022,04,05,01,08,40.40
2022,04,05,01,09,42.50
2022,04,05,01,10,44.40
2022,04,05,01,11,38.50
2022,04,05,01,12,37.80
2022,04,05,01,13,41.60
2022,04,05,01,14,41.70
2022,04,05,01,15,37.40
2022,04,05,01,16,36.50
2022,04,05,01,17,41.20
2022,04,05,01,18,42.40
2022,04,05,01,19,47.40
2022,04,05,01,20,37.30
2022,04,05,01,21,36.60
2022,04,05,01,22,41.40
2022,04,05,01,23,35.50
2022,04,05,01,24,38.30
2022,04,05,01,25,36.40
2022,04,05,01,26,41.00
2022,04,05,01,27,42.50
2022,04,05,01,28,42.30
2022,04,05,01,29,39.90
2022,04,05,01,30,36.10
2022,04,05,01,31,38.90
2022,04,05,01,32,41.30
2022,04,05,01,33,40.10
2022,04,05,01,34,43.50
2022,04,05,01,35,38.40
2022,04,05,01,36,38.30
2022,04,05,01,37,41.60
2022,04,05,01,38,38.10
2022,04,05,01,39,43.60
2022,04,05,01,40,46.20
2022,04,05,01,41,39.90
2022,04,05,01,42,46.50
2022,04,05,01,43,39.90
2022,04,05,01,44,42.30
2022,04,05,01,45,42.10
2022,04,05,01,46,48.40
2022,04,05,01,47,39.90
2022,04,05,01,48,40.30
2022,04,05,01,49,43.20
2022,04,05,01,50,48.00
2022,04,05,01,51,45.50
2022,04,05,01,52,47.60
2022,04,05,01,53,42.10
2022,04,05,01,54,40.50
2022,04,05,01,55,45.40
2022,04,05,01,56,43.60
2022,04,05,01,57,45.60
2022,04,05,01,58,44.00
2022,04,05,01,59,53.50
2022,04,05,02,00,49.00
2022,04,05,02,01,41.00
2022,04,05,02,02,42.30
2022,04,05,02,03,40.00
2022,04,05,02,04,43.50
2022,04,05,02,05,40.80
2022,04,05,02,06,43.40
2022,04,05,02,07,43.40
2022,04,05,02,08,40.00
2022,04,05,02,09,39.50
2022,04,05,02,10,42.60
2022,04,05,02,11,39.90
2022,04,05,02,12,40.70
2022,04,05,02,13,36.90
2022,04,05,02,14,36.30
2022,04,05,02,15,36.90
2022,04,05,02,16,38.90
2022,04,05,02,17,41.40
2022,04,05,02,18,38.30
2022,04,05,02,19,35.60
2022,04,05,02,20,32.70
2022,04,05,02,21,39.60
2022,04,05,02,22,46.20
2022,04,05,02,23,44.70
2022,04,05,02,24,34.70
2022,04,05,02,25,38.30
2022,04,05,02,26,36.10
2022,04,05,02,27,37.30
2022,04,05,02,28,37.30
2022,04,05,02,29,47.30
2022,04,05,02,30,41.60
2022,04,05,02,31,43.20
2022,04,05,02,32,39.40
2022,04,05,02,33,35.30
2022,04,05,02,34,34.50
2022,04,05,02,35,33.10
2022,04,05,02,36,36.10
2022,04,05,02,37,35.70
2022,04,05,02,38,37.30
2022,04,05,02,39,36.50
2022,04,05,02,40,37.50
2022,04,05,02,41,38.20
2022,04,05,02,42,38.80
2022,04,05,02,43,36.40
2022,04,05,02,44,36.00
2022,04,05,02,45,43.10
2022,04,05,02,46,44.40
2022,04,05,02,47,40.60
2022,04,05,02,48,41.80
2022,04,05,02,49,41.60
2022,04,05,02,50,34.50
2022,04,05,02,51,38.50
2022,04,05,02,52,43.00
2022,04,05,02,53,45.20
2022,04,05,02,54,41.50
2022,04,05,02,55,42.30
2022,04,05,02,56,41.90
2022,04,05,02,57,46.30
2022,04,05,02,58,43.90
2022,04,05,02,59,43.70
2022,04,05,03,00,44.90
2022,04,05,03,01,47.20
2022,04,05,03,02,41.70
2022,04,05,03,03,43.20
2022,04,05,03,04,43.20
2022,04,05,03,05,46.50
2022,04,05,03,06,49.90
2022,04,05,03,07,48.70
2022,04,05,03,08,48.00
2022,04,05,03,09,48.50
2022,04,05,03,10,51.70
2022,04,05,03,11,42.80
2022,04,05,03,12,42.40
2022,04,05,03,13,43.40
2022,04,05,03,14,46.00
2022,04,05,03,15,45.60
2022,04,05,03,16,41.80
2022,04,05,03,17,43.80
2022,04,05,03,18,41.20
2022,04,05,03,19,43.40
2022,04,05,03,20,40.20
2022,04,05,03,21,43.50
2022,04,05,03,22,42.40
2022,04,05,03,23,45.50
2022,04,05,03,24,41.00
2022,04,05,03,25,38.70
2022,04,05,03,26,41.20
2022,04,05,03,27,36.70
2022,04,05,03,28,42.70
2022,04,05,03,29,47.10
2022,04,05,03,30,35.90
2022,04,05,03,31,40.10
2022,04,05,03,32,40.60
2022,04,05,03,33,36.50
2022,04,05,03,34,44.80
2022,04,05,03,35,44.90
2022,04,05,03,36,45.70
2022,04,05,03,37,49.20
2022,04,05,03,38,39.10
2022,04,05,03,39,35.10
2022,04,05,03,40,31.70
2022,04,05,03,41,37.50
2022,04,05,03,42,39.10
2022,04,05,03,43,46.70
2022,04,05,03,44,45.10
2022,04,05,03,45,45.10
2022,04,05,03,46,47.40
2022,04,05,03,47,53.10
2022,04,05,03,48,49.80
2022,04,05,03,49,39.50
2022,04,05,03,50,44.00
2022,04,05,03,51,44.80
2022,04,05,03,52,38.30
2022,04,05,03,53,40.50
2022,04,05,03,54,35.90
2022,04,05,03,55,38.50
2022,04,05,03,56,47.10
2022,04,05,03,57,44.60
2022,04,05,03,58,37.70
2022,04,05,03,59,41.30
2022,04,05,04,00,43.30
2022,04,05,04,01,39.00
2022,04,05,04,02,38.30
2022,04,05,04,03,37.70
2022,04,05,04,04,45.10
2022,04,05,04,05,43.40
2022,04,05,04,06,45.80
2022,04,05,04,07,44.70
2022,04,05,04,08,40.50
2022,04,05,04,09,35.60
2022,04,05,04,10,36.00
2022,04,05,04,11,38.00
2022,04,05,04,12,35.30
2022,04,05,04,13,46.70
2022,04,05,04,14,38.20
2022,04,05,04,15,41.90
2022,04,05,04,16,40.90
2022,04,05,04,17,43.90
2022,04,05,04,18,47.40
2022,04,05,04,19,50.60
2022,04,05,04,20,44.80
2022,04,05,04,21,48.10
2022,04,05,04,22,48.70
2022,04,05,04,23,42.90
2022,04,05,04,24,44.10
2022,04,05,04,25,35.90
2022,04,05,04,26,38.10
2022,04,05,04,27,42.00
2022,04,05,04,28,42.60
2022,04,05,04,29,42.60
2022,04,05,04,30,45.60
2022,04,05,04,31,47.00
2022,04,05,04,32,47.50
2022,04,05,04,33,48.50
2022,04,05,04,34,38.60
2022,04,05,04,35,42.10
2022,04,05,04,36,37.50
2022,04,05,04,37,33.90
2022,04,05,04,38,33.20
2022,04,05,04,39,33.30
2022,04,05,04,40,24.90
2022,04,05,04,41,30.70
2022,04,05,04,42,34.50
2022,04,05,04,43,37.20
2022,04,05,04,44,42.40
2022,04,05,04,45,36.70
2022,04,05,04,46,41.20
2022,04,05,04,47,35.80
2022,04,05,04,48,35.30
2022,04,05,04,49,40.90
2022,04,05,04,50,38.40
2022,04,05,04,51,39.00
2022,04,05,04,52,37.90
2022,04,05,04,53,40.20
2022,04,05,04,54,46.50
2022,04,05,04,55,50.50
2022,04,05,04,56,36.60
2022,04,05,04,57,37.90
2022,04,05,04,58,37.40
2022,04,05,04,59,35.30
2022,04,05,05,00,39.10
2022,04,05,05,01,46.40
2022,04,05,05,02,40.20
2022,04,05,05,03,37.60
2022,04,05,05,04,35.60
2022,04,05,05,05,32.00
2022,04,05,05,06,33.70
2022,04,05,05,07,31.70
2022,04,05,05,08,38.20
2022,04,05,05,09,32.40
2022,04,05,05,10,33.40
2022,04,05,05,11,32.70
2022,04,05,05,12,33.10
2022,04,05,05,13,32.80
2022,04,05,05,14,34.10
2022,04,05,05,15,32.30
2022,04,05,05,16,35.50
2022,04,05,05,17,41.30
2022,04,05,05,18,30.90
2022,04,05,05,19,30.40
2022,04,05,05,20,31.60
2022,04,05,05,21,31.70
2022,04,05,05,22,37.00
2022,04,05,05,23,43.60
2022,04,05,05,24,36.90
2022,04,05,05,25,33.50
2022,04,05,05,26,32.30
2022,04,05,05,27,38.50
2022,04,05,05,28,38.80
2022,04,05,05,29,36.20
2022,04,05,05,30,31.70
2022,04,05,05,31,33.40
2022,04,05,05,32,35.50
2022,04,05,05,33,32.70
2022,04,05,05,34,28.90
2022,04,05,05,35,33.60
2022,04,05,05,36,33.40
2022,04,05,05,37,31.80
2022,04,05,05,38,28.80
2022,04,05,05,39,41.50
2022,04,05,05,40,37.80
2022,04,05,05,41,34.30
2022,04,05,05,42,36.80
2022,04,05,05,43,40.80
2022,04,05,05,44,41.00
2022,04,05,05,45,34.90
2022,04,05,05,46,40.80
2022,04,05,05,47,39.60
2022,04,05,05,48,35.30
2022,04,05,05,49,35.00
2022,04,05,05,50,38.20
2022,04,05,05,51,45.40
2022,04,05,05,52,44.40
2022,04,05,05,53,50.00
2022,04,05,05,54,41.70
2022,04,05,05,55,41.40
2022,04,05,05,56,41.70
2022,04,05,05,57,38.30
2022,04,05,05,58,43.90
2022,04,05,05,59,45.00
2022,04,05,06,00,40.20
2022,04,05,06,01,40.30
2022,04,05,06,02,39.30
2022,04,05,06,03,39.70
2022,04,05,06,04,40.80
2022,04,05,06,05,40.80
2022,04,05,06,06,40.40
2022,04,05,06,07,43.50
2022,04,05,06,08,45.70
2022,04,05,06,09,39.40
2022,04,05,06,10,36.30
2022,04,05,06,11,39.30
2022,04,05,06,12,36.90
2022,04,05,06,13,33.40
2022,04,05,06,14,34.90
2022,04,05,06,15,34.70
2022,04,05,06,16,39.50
2022,04,05,06,17,31.20
2022,04,05,06,18,33.20
2022,04,05,06,19,35.10
2022,04,05,06,20,24.10
2022,04,05,06,21,19.30
2022,04,05,06,22,19.30
2022,04,05,06,23,19.30
2022,04,05,06,24,19.30
2022,04,05,06,25,19.30
2022,04,05,06,26,19.30
2022,04,05,06,27,19.30
2022,04,05,06,28,19.30
2022,04,05,06,29,19.30
2022,04,05,06,30,19.30
2022,04,05,08,12,32.30
2022,04,05,08,13,29.60
2022,04,05,08,14,31.30
2022,04,05,08,15,36.70
2022,04,05,08,16,35.00
2022,04,05,08,17,29.40
2022,04,05,08,18,27.10
2022,04,05,08,19,34.00
2022,04,05,08,20,30.20
2022,04,05,08,21,34.70
2022,04,05,08,22,29.50
2022,04,05,08,23,25.90
2022,04,05,08,24,30.30
2022,04,05,08,25,36.80
2022,04,05,08,26,33.50
2022,04,05,08,27,33.00
2022,04,05,08,28,29.90
2022,04,05,08,29,29.70
2022,04,05,08,30,27.20
2022,04,05,08,31,30.00
2022,04,05,08,32,32.50
2022,04,05,08,33,33.30
2022,04,05,08,34,27.80
2022,04,05,08,35,26.30
2022,04,05,08,36,32.10
2022,04,05,08,37,31.30
2022,04,05,08,38,30.40
2022,04,05,08,39,27.40
2022,04,05,08,40,25.50
2022,04,05,08,41,27.80
2022,04,05,08,42,25.70
2022,04,05,08,43,25.80
2022,04,05,08,44,30.40
2022,04,05,08,45,34.00
2022,04,05,08,46,40.20
2022,04,05,08,47,36.60
2022,04,05,08,48,28.70
2022,04,05,08,49,27.30
2022,04,05,08,50,31.70
2022,04,05,08,51,20.90
2022,04,05,08,52,24.10
2022,04,05,08,53,20.80
2022,04,05,08,54,28.50
2022,04,05,08,55,33.70
2022,04,05,08,56,29.80
2022,04,05,08,57,30.10
2022,04,05,08,58,33.90
2022,04,05,08,59,25.40
2022,04,05,09,00,30.00
2022,04,05,09,01,36.70
2022,04,05,09,02,32.30
2022,04,05,09,03,38.10
2022,04,05,09,04,28.80
2022,04,05,09,05,27.40
2022,04,05,09,06,30.40
2022,04,05,09,07,25.20
2022,04,05,09,08,28.20
2022,04,05,09,09,20.60
2022,04,05,09,10,30.60
2022,04,05,09,11,26.70
2022,04,05,09,12,25.80
2022,04,05,09,13,19.70
2022,04,05,09,14,25.90
2022,04,05,09,15,33.50
2022,04,05,09,16,30.60
2022,04,05,09,17,24.60
2022,04,05,09,18,30.40
2022,04,05,09,19,32.70
2022,04,05,09,20,33.30
2022,04,05,09,21,27.40
2022,04,05,09,22,27.40
2022,04,05,09,23,32.10
2022,04,05,09,24,26.30
2022,04,05,09,25,29.20
2022,04,05,09,26,35.90
2022,04,05,09,27,32.80
2022,04,05,09,28,31.60
2022,04,05,09,29,30.10
2022,04,05,09,30,30.40
2022,04,05,09,31,32.30
2022,04,05,09,32,37.80
2022,04,05,09,33,37.20
2022,04,05,09,34,35.70
2022,04,05,09,35,36.90
2022,04,05,09,36,33.00
2022,04,05,09,37,33.20
2022,04,05,09,38,40.20
2022,04,05,09,39,34.90
2022,04,05,09,40,40.80
2022,04,05,09,41,35.70
2022,04,05,09,42,39.30
2022,04,05,09,43,35.60
2022,04,05,09,44,34.20
2022,04,05,09,45,35.20
2022,04,05,09,46,29.20
2022,04,05,09,47,33.80
2022,04,05,09,48,30.20
2022,04,05,09,49,29.70
2022,04,05,09,50,30.50
2022,04,05,09,51,28.70
2022,04,05,09,52,27.00
2022,04,05,09,53,30.00
2022,04,05,09,54,31.60
2022,04,05,09,55,30.70
2022,04,05,09,56,28.50
2022,04,05,09,57,32.70
2022,04,05,09,58,32.60
2022,04,05,09,59,31.00
2022,04,05,10,00,31.40
2022,04,05,10,01,34.90
2022,04,05,10,02,32.50
2022,04,05,10,03,34.20
2022,04,05,10,04,34.10
2022,04,05,10,05,31.30
2022,04,05,10,06,32.40
2022,04,05,10,07,39.00
2022,04,05,10,08,35.30
2022,04,05,10,09,32.80
2022,04,05,10,10,35.00
2022,04,05,10,11,35.60
2022,04,05,10,12,40.50
2022,04,05,10,13,34.60
2022,04,05,10,14,32.20
2022,04,05,10,15,36.30
2022,04,05,10,16,35.00
2022,04,05,10,17,32.90
2022,04,05,10,18,34.60
2022,04,05,10,19,29.10
2022,04,05,10,20,30.00
2022,04,05,10,21,36.70
2022,04,05,10,22,30.40
2022,04,05,10,23,36.40
2022,04,05,10,24,30.30
2022,04,05,10,25,29.90
2022,04,05,10,26,29.70
2022,04,05,10,27,31.10
2022,04,05,10,28,36.90
2022,04,05,10,29,33.90
2022,04,05,10,30,36.20
2022,04,05,10,31,28.40
2022,04,05,10,32,30.30
2022,04,05,10,33,30.60
2022,04,05,10,34,32.90
2022,04,05,10,35,33.60
2022,04,05,10,36,35.10
2022,04,05,10,37,31.50
2022,04,05,10,38,25.90
2022,04,05,10,39,28.10
2022,04,05,10,40,25.20
2022,04,05,10,41,26.70
2022,04,05,10,42,28.40
2022,04,05,10,43,28.80
2022,04,05,10,44,24.40
2022,04,05,10,45,30.90
2022,04,05,10,46,30.70
2022,04,05,10,47,27.50
2022,04,05,10,48,26.00
2022,04,05,10,49,29.10
2022,04,05,10,50,29.60
2022,04,05,10,51,31.60
2022,04,05,10,52,29.80
2022,04,05,10,53,29.50
2022,04,05,10,54,28.70
2022,04,05,10,55,32.50
2022,04,05,10,56,33.90
2022,04,05,10,57,27.30
2022,04,05,10,58,27.50
2022,04,05,10,59,31.70
2022,04,05,11,00,29.40
2022,04,05,11,01,30.10
2022,04,05,11,02,27.10
2022,04,05,11,03,32.30
2022,04,05,11,04,34.20
2022,04,05,11,05,30.90
2022,04,05,11,06,31.90
2022,04,05,11,07,31.00
2022,04,05,11,08,30.00
2022,04,05,11,09,29.70
2022,04,05,11,10,25.90
2022,04,05,11,11,29.40
2022,04,05,11,12,29.70
2022,04,05,11,13,34.30
2022,04,05,11,14,28.10
2022,04,05,11,15,29.90
2022,04,05,11,16,30.20
2022,04,05,11,17,27.40
2022,04,05,11,18,35.20
2022,04,05,11,19,31.50
2022,04,05,11,20,27.00
2022,04,05,11,21,26.50
2022,04,05,11,22,32.90
2022,04,05,11,23,30.70
2022,04,05,11,24,29.30
2022,04,05,11,25,25.40
2022,04,05,11,26,23.80
2022,04,05,11,27,30.60
2022,04,05,11,28,25.30
2022,04,05,11,29,33.90
2022,04,05,11,30,32.70
2022,04,05,11,31,29.40
2022,04,05,11,32,29.10
2022,04,05,11,33,30.00
2022,04,05,11,34,27.50
2022,04,05,11,35,25.10
2022,04,05,11,36,27.10
2022,04,05,11,37,32.20
2022,04,05,11,38,28.20
2022,04,05,11,39,24.40
2022,04,05,11,40,22.20
2022,04,05,11,41,26.90
2022,04,05,11,42,29.40
2022,04,05,11,43,28.60
2022,04,05,11,44,28.10
2022,04,05,11,45,24.90
2022,04,05,11,46,26.80
2022,04,05,11,47,26.80
2022,04,05,11,48,26.80
2022,04,05,11,49,27.50
2022,04,05,11,50,25.10
2022,04,05,11,51,27.80
2022,04,05,11,52,32.20
2022,04,05,11,53,27.70
2022,04,05,11,54,37.60
2022,04,05,11,55,34.70
2022,04,05,11,56,27.80
2022,04,05,11,57,25.30
2022,04,05,11,58,21.90
2022,04,05,11,59,20.10
2022,04,05,12,00,27.60
2022,04,05,12,01,29.20
2022,04,05,12,02,29.30
2022,04,05,12,03,28.80
2022,04,05,12,04,27.80
2022,04,05,12,05,30.20
2022,04,05,12,06,27.50
2022,04,05,12,07,29.00
2022,04,05,12,08,31.80
2022,04,05,12,09,33.10
2022,04,05,12,10,29.00
2022,04,05,12,11,30.20
2022,04,05,12,12,31.80
2022,04,05,12,13,29.70
2022,04,05,12,14,31.50
2022,04,05,12,15,26.40
2022,04,05,12,16,29.70
2022,04,05,12,17,28.00
2022,04,05,12,18,29.80
2022,04,05,12,19,26.10
2022,04,05,12,20,26.60
2022,04,05,12,21,26.70
2022,04,05,12,22,33.20
2022,04,05,12,23,27.80
2022,04,05,12,24,25.60
2022,04,05,12,25,26.60
2022,04,05,12,26,30.10
2022,04,05,12,27,31.90
2022,04,05,12,28,30.90
2022,04,05,12,29,30.00
2022,04,05,12,30,32.30
2022,04,05,12,31,34.60
2022,04,05,12,32,34.60
2022,04,05,12,33,27.80
2022,04,05,12,34,33.20
2022,04,05,12,35,34.00
2022,04,05,12,36,30.40
2022,04,05,12,37,29.70
2022,04,05,12,38,28.50
2022,04,05,12,39,23.50
2022,04,05,12,40,22.10
2022,04,05,12,41,28.70
2022,04,05,12,42,33.80
2022,04,05,12,43,32.80
2022,04,05,12,44,29.00
2022,04,05,12,45,25.70
2022,04,05,12,46,25.70
2022,04,05,12,47,27.80
2022,04,05,12,48,29.60
2022,04,05,12,49,27.60
2022,04,05,12,50,25.80
2022,04,05,12,51,25.70
2022,04,05,12,52,29.00
2022,04,05,12,53,31.60
2022,04,05,12,54,33.30
2022,04,05,12,55,35.60
2022,04,05,12,56,36.20
2022,04,05,12,57,32.00
2022,04,05,12,58,27.30
2022,04,05,12,59,29.70
2022,04,05,13,00,26.80
2022,04,05,13,01,30.70
2022,04,05,13,02,20.80
2022,04,05,13,03,25.20
2022,04,05,13,04,23.40
2022,04,05,13,05,22.90
2022,04,05,13,06,28.50
2022,04,05,13,07,24.50
2022,04,05,13,08,26.60
2022,04,05,13,09,31.50
2022,04,05,13,10,29.00
2022,04,05,13,11,34.80
2022,04,05,13,12,32.30
2022,04,05,13,13,36.90
2022,04,05,13,14,35.90
2022,04,05,13,15,36.30
2022,04,05,13,16,37.20
2022,04,05,13,17,34.50
2022,04,05,13,18,35.10
2022,04,05,13,19,31.90
2022,04,05,13,20,32.20
2022,04,05,13,21,35.50
2022,04,05,13,22,32.10
2022,04,05,13,23,29.90
2022,04,05,13,24,26.70
2022,04,05,13,25,26.80
2022,04,05,13,26,34.00
2022,04,05,13,27,31.90
2022,04,05,13,28,33.60
2022,04,05,13,29,24.90
2022,04,05,13,30,25.90
2022,04,05,13,31,24.20
2022,04,05,13,32,29.00
2022,04,05,13,33,26.80
2022,04,05,13,34,33.10
2022,04,05,13,35,31.40
2022,04,05,13,36,25.90
2022,04,05,13,37,33.90
2022,04,05,13,38,36.50
2022,04,05,13,39,29.10
2022,04,05,13,40,23.70
2022,04,05,13,41,33.00
2022,04,05,13,42,32.30
2022,04,05,13,43,25.40
2022,04,05,13,44,27.10
2022,04,05,13,45,30.40
2022,04,05,13,46,32.00
2022,04,05,13,47,31.00
2022,04,05,13,48,28.40
2022,04,05,13,49,28.10
2022,04,05,13,50,26.30
2022,04,05,13,51,34.70
2022,04,05,13,52,35.80
2022,04,05,13,53,36.50
2022,04,05,13,54,24.10
2022,04,05,13,55,31.00
2022,04,05,13,56,31.50
2022,04,05,13,57,29.20
2022,04,05,13,58,27.90
2022,04,05,13,59,28.30
2022,04,05,14,00,30.20
2022,04,05,14,01,26.00
2022,04,05,14,02,29.40
2022,04,05,14,03,26.40
2022,04,05,14,04,25.70
2022,04,05,14,05,30.80
2022,04,05,14,06,28.60
2022,04,05,14,07,32.20
2022,04,05,14,08,33.80
2022,04,05,14,09,26.30
2022,04,05,14,10,29.40
2022,04,05,14,11,29.70
2022,04,05,14,12,34.40
2022,04,05,14,13,28.80
2022,04,05,14,14,22.10
2022,04,05,14,15,26.70
2022,04,05,14,16,23.50
2022,04,05,14,17,23.70
2022,04,05,14,18,28.60
2022,04,05,14,19,24.70
2022,04,05,14,20,26.70
2022,04,05,14,21,25.30
2022,04,05,14,22,25.70
2022,04,05,14,23,28.80
2022,04,05,14,24,23.40
2022,04,05,14,25,26.10
2022,04,05,14,26,23.50
2022,04,05,14,27,31.50
2022,04,05,14,28,26.90
2022,04,05,14,29,30.00
2022,04,05,14,30,30.70
2022,04,05,14,31,30.40
2022,04,05,14,32,33.00
2022,04,05,14,33,30.90
2022,04,05,14,34,26.20
2022,04,05,14,35,31.30
2022,04,05,14,36,28.50
2022,04,05,14,37,28.60
2022,04,05,14,38,31.90
2022,04,05,14,39,30.70
2022,04,05,14,40,35.20
2022,04,05,14,41,31.10
2022,04,05,14,42,27.70
2022,04,05,14,43,28.10
2022,04,05,14,44,28.50
2022,04,05,14,45,32.40
2022,04,05,14,46,29.50
2022,04,05,14,47,32.10
2022,04,05,14,48,30.40
2022,04,05,14,49,32.30
2022,04,05,14,50,33.10
2022,04,05,14,51,28.70
2022,04,05,14,52,32.60
2022,04,05,14,53,29.70
2022,04,05,14,54,32.00
2022,04,05,14,55,34.10
2022,04,05,14,56,29.70
2022,04,05,14,57,36.20
2022,04,05,14,58,40.10
2022,04,05,14,59,34.10
2022,04,05,15,00,27.70
2022,04,05,15,01,26.40
2022,04,05,15,02,29.80
2022,04,05,15,03,22.20
2022,04,05,15,04,34.60
2022,04,05,15,05,37.30
2022,04,05,15,06,32.50
2022,04,05,15,07,24.70
2022,04,05,15,08,29.60
2022,04,05,15,09,30.70
2022,04,05,15,10,32.30
2022,04,05,15,11,27.00
2022,04,05,15,12,33.00
2022,04,05,15,13,31.50
2022,04,05,15,14,32.50
2022,04,05,15,15,25.70
2022,04,05,15,16,30.50
2022,04,05,15,17,25.40
2022,04,05,15,18,30.40
2022,04,05,15,19,31.30
2022,04,05,15,20,26.10
2022,04,05,15,21,22.90
2022,04,05,15,22,23.90
2022,04,05,15,23,24.90
2022,04,05,15,24,24.10
2022,04,05,15,25,21.10
2022,04,05,15,26,18.90
2022,04,05,15,27,21.20
2022,04,05,15,28,21.80
2022,04,05,15,29,26.60
2022,04,05,15,30,31.90
2022,04,05,15,31,19.20
2022,04,05,15,32,25.30
2022,04,05,15,33,28.10
2022,04,05,15,34,27.20
2022,04,05,15,35,27.50
2022,04,05,15,36,22.90
2022,04,05,15,37,24.90
2022,04,05,15,38,25.00
2022,04,05,15,39,23.90
2022,04,05,15,40,26.00
2022,04,05,15,41,27.40
2022,04,05,15,42,28.70
2022,04,05,15,43,25.80
2022,04,05,15,44,28.90
2022,04,05,15,45,32.60
2022,04,05,15,46,30.60
2022,04,05,15,47,33.30
2022,04,05,15,48,25.70
2022,04,05,15,49,29.70
2022,04,05,15,50,30.60
2022,04,05,15,51,29.50
2022,04,05,15,52,25.20
2022,04,05,15,53,25.50
2022,04,05,15,54,33.90
2022,04,05,15,55,27.40
2022,04,05,15,56,33.70
2022,04,05,15,57,27.00
2022,04,05,15,58,34.90
2022,04,05,15,59,33.90
2022,04,05,16,00,30.90
2022,04,05,16,01,29.50
2022,04,05,16,02,28.50
2022,04,05,16,03,28.60
2022,04,05,16,04,32.70
2022,04,05,16,05,30.90
2022,04,05,16,06,26.60
2022,04,05,16,07,23.50
2022,04,05,16,08,24.10
2022,04,05,16,09,20.80
2022,04,05,16,10,20.30
2022,04,05,16,11,24.60
2022,04,05,16,12,26.40
2022,04,05,16,13,23.40
2022,04,05,16,14,26.40
2022,04,05,16,15,28.10
2022,04,05,16,16,30.10
2022,04,05,16,17,27.50
2022,04,05,16,18,29.30
2022,04,05,16,19,23.90
2022,04,05,16,20,22.50
2022,04,05,16,21,24.10
2022,04,05,16,22,25.70
2022,04,05,16,23,24.80
2022,04,05,16,24,24.50
2022,04,05,16,25,28.20
2022,04,05,16,26,27.10
2022,04,05,16,27,25.50
2022,04,05,16,28,27.00
2022,04,05,16,29,23.50
2022,04,05,16,30,28.00
2022,04,05,16,31,28.90
2022,04,05,16,32,33.30
2022,04,05,16,33,28.80
2022,04,05,16,34,27.90
2022,04,05,16,35,29.00
2022,04,05,16,36,25.40
2022,04,05,16,37,29.10
2022,04,05,16,38,30.50
2022,04,05,16,39,27.90
2022,04,05,16,40,34.60
2022,04,05,16,41,31.70
2022,04,05,16,42,27.70
2022,04,05,16,43,26.30
2022,04,05,16,44,31.90
2022,04,05,16,45,30.30
2022,04,05,16,46,28.70
2022,04,05,16,47,25.10
2022,04,05,16,48,26.60
2022,04,05,16,49,27.20
2022,04,05,16,50,32.50
2022,04,05,16,51,32.40
2022,04,05,16,52,28.30
2022,04,05,16,53,26.30
2022,04,05,16,54,30.20
2022,04,05,16,55,30.00
2022,04,05,16,56,28.00
2022,04,05,16,57,29.40
2022,04,05,16,58,23.80
2022,04,05,16,59,26.50
2022,04,05,17,00,26.40
2022,04,05,17,01,29.00
2022,04,05,17,02,22.60
2022,04,05,17,03,26.60
2022,04,05,17,04,27.90
2022,04,05,17,05,30.30
2022,04,05,17,06,30.00
2022,04,05,17,07,23.70
2022,04,05,17,08,27.40
2022,04,05,17,09,28.80
2022,04,05,17,10,24.10
2022,04,05,17,11,24.20
2022,04,05,17,12,28.50
2022,04,05,17,13,29.30
2022,04,05,17,14,26.20
2022,04,05,17,15,27.70
2022,04,05,17,16,33.80
2022,04,05,17,17,37.00
2022,04,05,17,18,37.00
2022,04,05,17,19,37.00
2022,04,05,17,20,17.20
2022,04,05,17,21,9.70
2022,04,05,17,22,8.70
2022,04,05,17,23,13.90
2022,04,05,17,24,12.10
2022,04,05,17,25,10.30
2022,04,05,17,26,9.80
2022,04,05,17,27,9.40
2022,04,05,17,28,14.20
2022,04,05,17,29,8.70
2022,04,05,17,30,7.40
2022,04,05,17,31,9.50
2022,04,05,17,32,7.20
2022,04,05,17,33,8.00
2022,04,05,17,34,7.20
2022,04,05,17,35,5.00
2022,04,05,17,36,8.50
2022,04,05,17,37,9.60
2022,04,05,17,38,9.50
2022,04,05,17,39,9.70
2022,04,05,17,40,8.30
2022,04,05,17,41,13.80
2022,04,05,17,42,8.00
2022,04,05,17,43,10.40
2022,04,05,17,44,7.30
2022,04,05,17,45,7.40
2022,04,05,17,46,9.00
2022,04,05,17,47,12.60
2022,04,05,17,48,8.80
2022,04,05,17,49,10.60
2022,04,05,17,50,10.10
2022,04,05,17,51,12.00
2022,04,05,17,52,13.60
2022,04,05,17,53,8.10
2022,04,05,17,54,8.00
2022,04,05,17,55,8.90
2022,04,05,17,56,7.40
2022,04,05,17,57,11.10
2022,04,05,17,58,10.00
2022,04,05,17,59,12.40
2022,04,05,18,00,6.60
2022,04,05,18,01,6.40
2022,04,05,18,02,9.10
2022,04,05,18,03,9.50
2022,04,05,18,04,9.40
2022,04,05,18,05,6.60
2022,04,05,18,06,9.40
2022,04,05,18,07,9.90
2022,04,05,18,08,8.50
2022,04,05,18,09,11.10
2022,04,05,18,10,9.00
2022,04,05,18,11,8.20
2022,04,05,18,12,11.70
2022,04,05,18,13,7.80
2022,04,05,18,14,7.10
2022,04,05,18,15,6.90
2022,04,05,18,16,8.10
2022,04,05,18,17,7.50
2022,04,05,18,18,7.50
2022,04,05,18,19,3.70
2022,04,05,18,20,9.40
2022,04,05,18,21,8.40
2022,04,05,18,22,8.30
2022,04,05,18,23,5.70
2022,04,05,18,24,11.70
2022,04,05,18,25,10.10
2022,04,05,18,26,5.10
2022,04,05,18,27,7.70
2022,04,05,18,28,11.90
2022,04,05,18,29,8.70
2022,04,05,18,30,6.20
2022,04,05,18,31,5.90
2022,04,05,18,32,7.00
2022,04,05,18,33,6.70
2022,04,05,18,34,10.20
2022,04,05,18,35,9.50
2022,04,05,18,36,3.00
2022,04,05,18,37,9.00
2022,04,05,18,38,5.80
2022,04,05,18,39,4.40
2022,04,05,18,40,5.50
2022,04,05,18,41,8.00
2022,04,05,18,42,6.50
2022,04,05,18,43,8.90
2022,04,05,18,44,8.20
2022,04,05,18,45,5.00
2022,04,05,18,46,3.80
2022,04,05,18,47,7.60
2022,04,05,18,48,6.20
2022,04,05,18,49,10.90
2022,04,05,18,50,9.30
2022,04,05,18,51,6.60
2022,04,05,18,52,6.90
2022,04,05,18,53,7.00
2022,04,05,18,54,5.50
2022,04,05,18,55,7.30
2022,04,05,18,56,6.50
2022,04,05,18,57,7.80
2022,04,05,18,58,3.40
2022,04,05,18,59,7.80
2022,04,05,19,00,7.50
2022,04,05,19,01,5.60
2022,04,05,19,02,8.70
2022,04,05,19,03,6.80